Flag for Moldova Weather past 2 weeks in Chisinau, Moldova

Now
68 °F

Overcast.


Feels Like: 68 °F
Forecast: 59 / 80 °F
Wind: 9 mph from Northwest

Location: Chisinau International Airport

Current Time: Jul 31, 2015 at 10:47:23 PM

Latest Report: Jul 31, 2015 at 10:00 PM


Visibility: N/A

Pressure: 29.92 "Hg

Humidity: 78%

Dew point: 61 °F

Location of ChisinauLocation

Historic Weather in Chisinau — Graph

°F

Chisinau temperature yesterday

Maximum temperature yesterday: 93 °F (at 1:30 PM)
Minimum temperature yesterday: 70 °F (at 11:00 PM)
Average temperature yesterday: 82 °F

Past Weeks' High & Low Weather Summary

 TemperatureHumidityPressure
High97 °F (Jul 26, 1:30 PM)88% (Jul 31, 2:00 AM)30.12 "Hg (Jul 31, 2:00 AM)
Low57 °F (Jul 17, 3:00 AM)18% (Jul 25, 4:30 PM)29.62 "Hg (Jul 26, 3:00 PM)
Average79 °F48%29.88 "Hg
* Reported Jul 16 10:00 PM — Jul 31 10:00 PM, Chisinau, Weather by CustomWeather, © 2015

Note: Actual official high and low records may vary slightly from our data, if they occured in-between our weather recording intervals... More about our weather records

Advertising

Chisinau weather history for previous 24 hours

 ConditionsComfort  
Time TempWeatherWind HumidityBarometerVisibility
10:00 PM
Fri, Jul 31
68 °FOvercast.9 mph78%29.92 "HgN/A
9:30 PM68 °FOvercast.10 mph83%29.92 "HgN/A
9:00 PM68 °FBroken clouds.12 mph83%29.89 "HgN/A
8:30 PM70 °FBroken clouds.9 mph83%29.89 "HgN/A
8:00 PM70 °FSprinkles. Broken clouds.2 mph83%29.89 "Hg5 mi
7:30 PM70 °FRain showers. More clouds than sun.5 mph83%29.86 "Hg1 mi
7:00 PM70 °FSprinkles. Mostly cloudy.8 mph83%29.86 "Hg3 mi
6:30 PM73 °FMostly cloudy.8 mph69%29.86 "HgN/A
6:00 PM73 °FMostly cloudy.8 mph74%29.89 "HgN/A
5:30 PM75 °FMore clouds than sun.8 mph69%29.86 "HgN/A
5:00 PM73 °FMore clouds than sun.7 mph74%29.89 "HgN/A
4:30 PM73 °FMore clouds than sun.2 mph74%29.89 "HgN/A
4:00 PM73 °FBroken clouds.5 mph74%29.89 "HgN/A
3:30 PM72 °FPartly sunny.6 mph78%29.92 "HgN/A
3:00 PM72 °FPartly sunny.7 mph78%29.89 "HgN/A
2:30 PM72 °FPartly sunny.8 mph78%29.92 "HgN/A
2:00 PM72 °FPartly sunny.7 mph78%29.92 "HgN/A
1:30 PM72 °FPartly sunny.7 mph78%29.92 "HgN/A
1:00 PM70 °FPartly sunny.7 mph83%29.92 "Hg6 mi
12:30 PM70 °FSprinkles. Partly sunny.8 mph83%29.92 "Hg6 mi
12:00 PM70 °FSprinkles. Partly sunny.7 mph83%29.92 "Hg6 mi
11:30 AM70 °FSprinkles. Fog.8 mph83%29.92 "Hg3 mi
11:00 AM70 °FSprinkles. Fog.8 mph83%29.92 "Hg3 mi
10:30 AM70 °FSprinkles. Partly sunny.7 mph83%29.92 "Hg4 mi
10:00 AM70 °FPartly sunny.7 mph83%29.92 "Hg6 mi
9:30 AM68 °FPartly sunny.9 mph88%29.92 "Hg6 mi
9:00 AM68 °FSprinkles. Partly sunny.7 mph88%29.92 "Hg4 mi
8:30 AM68 °FPartly sunny.8 mph88%29.89 "Hg5 mi
8:00 AM68 °FSprinkles. Partly sunny.5 mph88%29.92 "Hg4 mi
7:30 AM68 °FFog.5 mph88%29.92 "Hg3 mi
7:00 AM68 °FPartly sunny.7 mph88%29.92 "Hg4 mi
6:30 AM68 °FFog.7 mph88%29.89 "Hg3 mi
6:00 AM68 °FFog.6 mph88%29.89 "Hg3 mi
5:30 AM68 °FFog.8 mph88%29.89 "Hg3 mi
5:00 AM68 °FFog.5 mph88%29.89 "Hg2 mi
4:30 AM68 °FThundershowers. Passing clouds.3 mph88%29.89 "Hg2 mi
4:00 AM68 °FThundershowers. Partly cloudy.1 mph88%29.92 "Hg3 mi
3:30 AM68 °FSprinkles. Partly cloudy.5 mph88%29.89 "Hg4 mi
3:00 AM68 °FPassing clouds.3 mph88%29.89 "HgN/A
2:30 AM68 °FSprinkles. Passing clouds.8 mph88%29.89 "Hg4 mi
2:00 AM68 °FFog.5 mph88%29.89 "Hg3 mi
1:00 AM70 °FSprinkles. Partly cloudy.6 mph83%29.89 "Hg4 mi
12:30 AM70 °FSprinkles. Passing clouds.5 mph83%29.89 "HgN/A
12:00 AM70 °FSprinkles. Passing clouds.6 mph83%29.89 "HgN/A
11:30 PM
Thu, Jul 30
70 °FPartly cloudy.10 mph78%29.89 "HgN/A
11:00 PM70 °FThundershowers. Partly cloudy.8 mph83%29.86 "HgN/A
10:30 PM72 °FThundershowers. Partly cloudy.13 mph69%29.89 "Hg1 mi
10:00 PM75 °FThundershowers. Partly cloudy.10 mph57%29.86 "HgN/A
Weather by CustomWeather, © 2015

See weather overviewHow to use our weather pages